#timestamp,LO_Frequency,Hit,StdDev 
1552741215.7,286047000.1,N
1552741235.5,286047000.5,N
1552741255.4,286046999.9,N
1552741275.2,286047000.8,N
1552741295.1,286047001.1,N
1552741296.0,286047001.1,N
1552741315.8,286047001.2,N
1552741335.6,286046999.0,N
1552741355.5,286046998.8,N
1552741375.3,286046998.9,N
1552741395.1,286046999.1,N
1552741415.9,286046998.4,N
1552741435.7,286047000.5,N
1552741455.6,286047000.6,N
1552741475.4,286047000.4,N
1552741495.2,286047001.9,N
1552741515.1,286047002.3,N
1552741516.0,286047002.3,N
1552741535.8,286046999.7,N
1552741555.6,286047001.9,N
1552741575.5,286047001.8,N
1552741595.3,286047001.4,N
1552741615.1,286047003.9,N
1552741635.9,286047003.5,N
1552741655.7,286047005.7,N
1552741675.6,286047007.2,N
1552741695.4,286047008.2,N
1552741715.2,286047010.6,Y
1552741735.1,286047006.6,P
1552741736.0,286047006.6,N
1552741755.8,286047008.9,P
1552741775.6,286047010.7,Y
1552741795.5,286047001.9,P
1552741815.3,286047002.6,N
1552741835.2,286047000.1,N
1552741855.9,286047001.8,N
1552741875.7,286047002.5,N
1552741895.6,286047002.4,N
1552741915.4,286047002.5,N
1552741935.2,286047002.5,N
1552741955.1,286047001.6,N
1552741956.0,286047001.6,N
1552741975.8,286047002.4,N
1552741995.7,286047004.0,Y
1552742015.5,286047000.3,P
1552742035.3,286047000.3,N
1552742055.2,286046998.7,N
1552742075.0,286047001.2,N
1552742075.9,286047001.2,N
1552742095.7,286047001.2,N
1552742115.6,286047000.8,N
1552742135.4,286046998.5,N
1552742155.3,286046999.3,N
1552742175.1,286046998.2,N
1552742176.0,286046998.2,N
1552742195.8,286046998.4,N
1552742215.7,286046996.5,N
1552742235.5,286046996.9,N
1552742255.3,286046996.8,N
1552742275.2,286046999.4,N
1552742295.0,286046997.4,N
1552742295.9,286046997.4,N
1552742315.7,286046995.7,N
1552742335.6,286046995.1,N
1552742355.4,286046997.6,N
1552742375.3,286046997.8,N
1552742395.1,286046996.2,N
1552742396.0,286046996.2,N
1552742415.8,286046997.4,N
1552742435.7,286046998.7,N
1552742485.5,286047000.6,E
1552742495.5,286047001.2,N
1552742515.3,286047001.2,P
1552742535.1,286047000.9,P
1552742555.9,286047000.7,Y
1552742575.7,286047000.2,P
1552742595.5,286047002.8,P
1552742615.4,286047001.1,N
1552742635.2,286046999.2,N
1552742655.1,286046998.9,N
1552742656.0,286046998.9,N
1552742675.8,286046998.4,N
1552742695.6,286046998.1,N
1552742715.5,286046998.3,N
1552742735.3,286047000.0,N
1552742755.1,286047000.6,N
1552742775.9,286047000.1,N
1552742795.7,286047002.8,N
1552742815.5,286047000.6,N
1552742835.4,286046998.5,N
1552742855.2,286046997.4,N
1552742875.1,286046999.5,N
1552742876.0,286046999.5,N
1552742895.8,286047000.8,N
1552742945.6,286047002.2,E
1552742955.6,286047002.2,N
1552742975.4,286047000.1,P
1552742995.2,286046998.3,N
1552743015.1,286046997.2,N
1552743016.0,286046997.2,N
1552743035.8,286046995.3,N
1552743055.6,286046995.6,N
1552743075.5,286046997.1,N
1552743095.3,286046996.9,N
1552743115.2,286046998.7,N
1552743135.9,286046998.8,N
1552743155.7,286047001.1,N
1552743175.6,286047001.0,N
1552743195.4,286046999.9,N
1552743215.2,286047001.2,N
1552743235.1,286047000.5,N
1552743236.0,286047000.5,N
1552743255.8,286046999.3,N
1552743275.7,286046995.3,N
1552743295.5,286046992.2,Y
1552743315.3,286046992.5,P
1552743335.2,286046992.6,N
1552743355.0,286046992.7,N
1552743355.9,286046992.7,N
1552743375.7,286046991.9,Y
1552743395.6,286046999.3,P
1552743415.4,286046999.4,N
1552743435.3,286046998.5,N
1552743455.1,286046999.9,N
1552743456.0,286046999.9,N
1552743475.8,286047000.6,N
1552743495.7,286047002.4,N
1552743515.5,286047004.0,N
1552743535.3,286047001.9,N
1552743555.2,286047001.3,N
1552743575.0,286047001.8,N
1552743575.9,286047001.8,N
1552743595.8,286047001.4,N
1552743615.6,286047001.7,N
1552743635.4,286047000.2,N
1552743655.3,286047000.5,N
1552743675.1,286046998.3,N
1552743695.8,286046998.7,N
1552743715.7,286046998.6,N
1552743735.5,286046998.2,N
1552743755.3,286046996.5,N
1552743775.2,286046999.3,N
1552743795.0,286046998.3,N
1552743795.9,286046998.3,N
1552743815.8,286047000.1,N
1552743835.6,286047002.2,N
1552743855.4,286047002.0,N
1552743875.3,286047002.0,N
1552743895.1,286047001.9,N
1552743915.8,286047002.5,N
1552743935.7,286047002.0,N
1552743955.5,286047002.5,N
1552743975.4,286046999.8,N
1552743995.2,286047002.4,N
1552744015.0,286047000.1,N
1552744015.9,286047000.1,N
1552744035.8,286047001.5,N
1552744055.6,286047002.7,N
1552744075.4,286047002.3,N
1552744095.3,286047002.6,N
1552744115.1,286046999.4,N
1552744135.9,286046999.5,N
1552744155.7,286046997.7,N
1552744175.5,286046999.0,N
1552744195.4,286046996.5,N
1552744215.2,286046996.8,N
1552744235.0,286046997.9,N
1552744235.9,286046997.9,N
1552744255.8,286046997.6,N
1552744275.6,286046997.1,N
1552744295.5,286046999.3,N
1552744315.3,286046998.3,N
1552744335.1,286046999.0,N
1552744355.9,286046998.9,N
1552744375.7,286046999.1,N
1552744395.5,286046999.4,N
1552744415.4,286046999.5,N
1552744435.2,286046997.4,N
1552744455.0,286046999.0,N
1552744456.0,286046999.0,N
1552744475.8,286047000.7,N
1552744495.6,286047001.1,N
1552744515.5,286046998.1,N
1552744535.3,286047002.8,N
1552744555.1,286047001.7,N
1552744575.9,286047001.3,N
1552744595.7,286047003.0,N
1552744615.5,286047003.7,N
1552744635.4,286047001.4,N
1552744655.2,286047003.9,N
1552744675.1,286047001.7,N
1552744676.0,286047001.7,N
1552744695.8,286047004.2,N
1552744715.6,286047003.6,N
1552744735.5,286047005.5,N
1552744755.3,286047003.5,N
1552744775.1,286047003.3,N
1552744795.9,286047003.2,N
